Regional Weather Roundup
Issued by NWS Little Rock, AR

Home | Current Version | Previous Version | Graphics & Text | Print | Product List | Glossary On
Versions: 1 2 3 4 5 6 7 8 9 10 11 12 13 14 15 16 17 18 19 20 21 22 23 24 25 26 27 28 29 30 31
000
ASUS44 KLZK 221405
RWRLZK

WEATHER ROUNDUP FOR ARKANSAS
NATIONAL WEATHER SERVICE LITTLE ROCK AR
800 AM CST THU FEB 22 2018

NOTE: "FAIR" INDICATES FEW OR NO CLOUDS BELOW 12,000 FEET WITH NO
SIGNIFICANT WEATHER AND/OR OBSTRUCTIONS TO VISIBILITY.

ARZ001-003-010-029-221500-
NORTHWEST ARKANSAS

CITY           SKY/WX    TMP DP  RH WIND       PRES   REMARKS
FAYETTEVILLE   CLOUDY    35  35 100 E7        30.31F WCI  29
FORT SMITH     FOG       40  40 100 SE5       30.32F VSB 1/2
HARRISON       CLOUDY    32  32 100 CALM      30.35S FOG
BENTONVILLE    FAIR      35  35 100 E8        30.33F WCI  29
ROGERS         CLOUDY    34  32  93 E6        30.33F FOG     WCI  29
SILOAM SPGS    FAIR      34  33  96 E6        30.31F WCI  29
HIGHFILL       FAIR      35  34  96 E6        30.32S WCI  30
SPRINGDALE     MOSUNNY   34  34 100 E10       30.33F WCI  26
$$

ARZ004-005-016-221500-
NORTH CENTRAL ARKANSAS

CITY           SKY/WX    TMP DP  RH WIND       PRES   REMARKS
BATESVILLE     CLOUDY    37  36  96 N5        30.39R
FLIPPIN        CLOUDY    35  34  96 N6        30.40R WCI  30
MTN HOME       CLOUDY    33  33 100 CALM      30.37R
$$

ARZ040-041-221500-
WEST CENTRAL ARKANSAS

CITY           SKY/WX    TMP DP  RH WIND       PRES   REMARKS
MENA           CLOUDY    41  41 100 NE3       30.30R
MOUNT IDA      CLOUDY    41  41 100 CALM      30.30R FOG
$$

ARZ009-017-025-026-028-221500-
NORTHEAST ARKANSAS

CITY           SKY/WX    TMP DP  RH WIND       PRES   REMARKS
JONESBORO      CLOUDY    40  40 100 N3        30.37R
NEWPORT          N/A     39  38  96 N8        30.40R
WALNUT RIDGE   CLOUDY    38  37  97 N8        30.38R
BLYTHEVILLE    CLOUDY    42  32  67 N12       30.36R
NW BLYTHEVILLE CLOUDY    41  41 100 N13       30.36  FOG
$$

ARZ022-023-033-042-044-221500-
CENTRAL ARKANSAS

CITY           SKY/WX    TMP DP  RH WIND       PRES   REMARKS
LITTLE ROCK    CLOUDY    39  39 100 NE6       30.38R FOG
N LITTLE ROCK    N/A     38  38 100 N5        30.36R
JACKSONVILLE   FOG       40  39  99 NE6       30.36R VSB 3/4
SEARCY         CLOUDY    40  40 100 N8        30.38R
HOT SPRINGS    CLOUDY    42  41  96 E6        30.35R
RUSSELLVILLE   FAIR      39  37  92 CALM      30.36R
CLINTON        CLOUDY    37  36  93 CALM      30.38R
$$

ARZ036-221500-
EAST ARKANSAS

CITY           SKY/WX    TMP DP  RH WIND       PRES   REMARKS
WEST MEMPHIS   CLOUDY    41  32  70 N9        30.34R FOG
$$

ARZ050-053-066-070-073-221500-
SOUTHWEST ARKANSAS

CITY           SKY/WX    TMP DP  RH WIND       PRES   REMARKS
ARKADELPHIA    LGT RAIN  41  41 100 NE7       30.37R FOG
CAMDEN         DRZL/FOG  43  41  93 N7        30.35R VSB 3/4
TEXARKANA      FOG       44  44 100 NE8       30.30R VSB 1
EL DORADO      CLOUDY    44  44 100 N7        30.32S FOG
DE QUEEN       CLOUDY    47  47 100 E7        30.27S FOG
$$

ARZ056-057-069-221500-
SOUTHEAST ARKANSAS

CITY           SKY/WX    TMP DP  RH WIND       PRES   REMARKS
PINE BLUFF     CLOUDY    39  39 100 N9        30.36R FOG
STUTTGART      CLOUDY    40  39  97 N13       30.36R FOG
MONTICELLO     CLOUDY    42  41  96 N5        30.33R FOG

$$






USA.gov is the U.S. government's official web portal to all federal, state and local government web resources and services.